Location: Dumpton Point
(51.3500°N, 1.4433°E)
Time: 08:01:17
(UTC+00:00)

N. Korean satellite - Visible Passes

Search period start: 02 December 2021 00:00
Search period end: 12 December 2021 00:00
Orbit: 447 x 495 km, 97.3° (Epoch: 01 December)

Date Brightness Start Highest point End Pass type
(mag) Time Alt. Az. Time Alt. Az. Time Alt. Az.
02 Dec 9.6 04:14:56 10° NE 04:16:55 15° E 04:18:53 10° SE visible
02 Dec 6.6 05:47:06 10° N 05:50:23 46° WNW 05:53:37 10° SW visible
02 Dec 7.2 16:25:43 10° S 16:29:13 59° W 16:32:41 10° NNW visible
03 Dec 6.4 05:18:30 10° NNE 05:21:55 79° ESE 05:25:17 10° S visible
03 Dec 8.4 06:53:46 10° NW 06:54:34 11° WNW 06:55:21 10° WNW visible
03 Dec 10.0 17:32:53 10° WSW 17:34:17 12° W 17:35:41 10° WNW visible
04 Dec 8.0 04:50:10 10° NNE 04:53:20 35° E 04:56:28 10° SSE visible
04 Dec 7.8 06:23:49 10° NNW 06:26:20 19° WNW 06:28:50 10° WSW visible
04 Dec 9.2 17:02:40 10° SSW 17:05:31 23° W 17:08:23 10° NW visible
05 Dec 9.3 04:22:16 10° NE 04:24:37 17° E 04:26:58 10° SE visible
05 Dec 6.9 05:54:49 10° N 05:57:59 37° WNW 06:01:08 10° SW visible
05 Dec 7.7 16:33:28 10° S 16:36:52 47° W 16:40:15 10° NNW visible
06 Dec 6.2 05:26:07 10° NNE 05:29:31 83° WNW 05:32:54 10° SSW visible
07 Dec 7.6 04:57:40 10° NNE 05:00:56 43° E 05:04:10 10° S visible
07 Dec 8.0 06:31:38 10° NNW 06:33:50 17° WNW 06:36:03 10° WSW visible
07 Dec 9.5 17:10:35 10° SW 17:13:09 19° W 17:15:44 10° NW visible
08 Dec 9.0 04:29:34 10° NE 04:32:13 21° E 04:34:52 10° SE visible
08 Dec 7.1 06:02:27 10° N 06:05:30 31° WNW 06:08:31 10° SW visible
08 Dec 8.1 16:41:09 10° SSW 16:44:26 38° W 16:47:42 10° NNW visible
09 Dec 9.9 04:02:41 10° ENE 04:03:23 10° E 04:04:06 10° E visible
09 Dec 6.2 05:33:38 10° N 05:37:01 67° WNW 05:40:23 10° SSW visible
10 Dec 7.6 05:05:05 10° NNE 05:09:31 36° SSE 05:11:45 10° S visible
10 Dec 8.1 06:39:23 10° NNW 06:41:15 14° WNW 06:41:21 14° WNW visible
10 Dec 9.6 17:18:29 10° SW 17:20:41 16° W 17:22:54 10° NW visible
11 Dec 9.0 04:36:50 10° NE 04:41:28 17° SE 04:42:35 10° SSE visible
11 Dec 7.8 06:10:01 10° N 06:15:35 11° WSW 06:15:46 10° SW visible
11 Dec 8.6 16:48:46 10° SSW 16:51:54 31° W 16:55:01 10° NNW visible
